Wind_Speed
13 13 12 13 13 15 17 17 19 21 24 23 21 19 18 16 14 11 7 4 2 1 4 6 10 13 11 6 3 6 4 4 4 7 11 8 10 10 10 11 11 12 15 16 13
13 13 12 13 14 15 16 17 17 18 20 21 18 16 15 13 8 8 6 3 1 3 4 7 1 6 8 5 1 3 3 10 9 13 10 7 9 8 10 12 13 13 14 17 16
13 13 12 12 13 14 14 15 15 15 16 15 15 13 11 8 3 2 0 1 2 3 3 4 5 6 7 4 2 3 6 6 6 6 7 6 8 8 10 13 13 13 14 16 17
11 11 11 11 12 12 12 12 12 12 12 12 11 10 8 8 2 2 2 2 3 3 5 5 5 7 7 4 2 2 3 3 4 6 7 7 9 10 10 15 14 17 15 17 17
10 10 10 10 10 10 10 10 10 9 9 9 9 8 7 6 4 5 3 4 4 5 5 4 3 5 4 3 3 2 4 4 5 5 7 8 10 12 11 17 13 17 18 18 18
9 9 9 9 9 9 8 8 8 8 7 7 7 7 6 4 6 4 3 5 5 5 4 3 3 3 3 3 5 5 4 4 5 6 7 10 12 13 14 14 15 17 17 18 18
9 8 8 8 8 8 7 6 6 5 5 5 6 6 8 5 6 4 4 5 5 4 3 4 3 3 5 5 3 3 3 4 5 7 9 11 10 10 13 13 16 17 18 18 17
8 8 7 7 7 7 6 5 4 4 4 4 5 6 7 6 5 4 4 3 2 3 4 4 5 5 4 3 4 5 7 5 11 13 10 11 11 13 16 18 20 21 20 17 18
7 7 7 7 6 6 5 4 4 4 4 5 5 6 4 5 3 3 1 1 2 3 4 5 5 4 3 6 7 6 5 5 10 13 13 13 15 21 20 19 19 20 18 16 16
6 6 6 6 6 6 4 3 3 5 5 5 6 5 6 3 3 2 1 1 3 4 1 6 6 7 7 3 3 4 5 6 10 15 17 20 20 14 19 17 17 16 13 14 12
4 5 5 6 5 5 4 5 3 3 4 4 3 8 6 3 3 2 2 4 5 3 5 6 2 5 9 4 3 5 5 7 11 15 19 19 16 11 13 11 10 13 13 12 15
4 4 5 5 5 4 4 3 3 3 3 5 5 6 4 4 4 2 4 5 5 1 9 3 7 8 7 3 4 5 5 6 12 14 17 12 5 4 7 9 10 13 14 16 19
3 3 4 5 4 4 5 1 2 1 4 2 3 4 5 5 6 5 6 6 5 4 4 7 9 8 6 3 4 2 9 8 13 15 6 13 2 5 5 8 12 15 15 15 18
2 2 3 4 5 6 3 2 2 2 3 5 5 6 6 8 8 8 7 6 6 5 7 9 6 7 6 5 5 4 7 12 11 4 2 7 5 10 6 11 13 14 15 16 19
3 3 4 5 6 5 3 4 2 2 3 4 5 7 8 8 8 5 5 6 8 10 7 8 10 8 7 8 7 7 10 8 3 1 5 5 3 6 9 13 18 15 16 17 21
5 5 4 6 6 6 6 5 3 2 4 3 6 7 7 7 10 11 11 9 10 12 12 15 12 10 9 7 7 7 7 4 4 3 4 9 2 8 9 9 17 18 18 20 23
8 7 6 7 7 6 6 4 2 4 3 3 6 8 8 9 11 10 12 11 7 5 9 9 12 12 11 9 7 4 5 3 2 2 4 9 8 8 15 15 17 22 24 24 26
10 9 9 9 9 8 8 6 4 4 5 7 7 11 9 10 11 12 12 12 11 12 12 7 9 8 8 10 5 4 1 2 3 3 3 12 7 8 15 19 18 22 25 27 28
12 12 11 11 11 11 10 8 4 6 7 7 13 8 6 9 8 12 12 11 15 11 10 4 8 9 11 10 8 6 6 4 5 7 4 6 8 14 17 14 21 24 28 29 29
13 14 13 13 13 14 14 16 10 13 15 9 9 8 7 8 9 7 4 10 11 14 13 10 9 14 13 14 15 14 7 4 3 2 4 8 13 15 17 14 21 26 30 31 32
14 15 14 14 15 16 21 17 17 20 18 14 11 12 16 13 15 12 9 14 17 12 12 13 11 9 10 11 13 14 14 9 6 5 4 3 8 10 16 16 19 26 31 32 33
15 16 15 14 17 17 22 18 23 24 17 16 17 17 17 15 18 13 14 15 11 10 14 14 9 12 17 15 15 16 14 13 6 6 9 4 24 8 10 17 24 28 31 31 33
16 17 17 17 17 19 21 20 23 24 21 23 20 16 18 17 13 10 17 17 18 16 10 9 8 7 7 13 20 23 22 21 19 17 18 6 15 14 21 25 25 30 32 32 32
16 14 16 19 21 22 17 18 22 21 23 22 23 22 23 22 20 16 17 14 12 14 16 18 19 17 13 7 13 14 15 16 22 17 24 36 39 31 25 25 27 28 31 32 33
19 18 19 15 13 17 21 23 21 18 22 21 25 23 19 21 21 23 22 23 23 22 20 19 24 24 26 26 24 27 29 29 30 36 28 40 34 37 26 26 24 25 26 30 32
23 23 24 24 23 22 21 23 20 24 27 27 24 19 24 24 21 22 24 21 19 18 16 22 24 26 31 27 25 25 29 30 36 40 44 42 39 20 17 21 24 25 29 30 31
26 26 27 27 25 26 24 23 22 21 20 20 22 27 28 29 25 25 28 28 27 25 22 21 21 20 21 21 20 26 32 24 26 31 37 34 22 20 21 22 27 25 30 33 35
Wind_Direction
132 127 116 104 109 117 120 121 123 131 139 139 140 137 131 130 131 133 114 118 98 14 13 349 22 7 30 27 92 100 149 173 154 165 258 228 237 249 265 276 280 282 290 295 301
132 128 118 112 116 117 120 121 122 132 145 147 150 145 141 138 147 139 150 156 295 322 356 18 77 348 318 359 95 146 181 197 190 217 245 237 250 260 268 279 281 285 288 302 303
130 125 126 121 121 122 124 126 128 129 137 154 158 151 151 148 200 148 220 309 307 337 347 353 346 337 325 326 259 214 215 237 253 250 274 269 273 280 283 289 288 292 296 302 298
128 133 132 130 126 133 130 134 136 134 140 145 145 155 167 188 196 329 285 326 325 338 333 331 354 304 323 326 296 273 275 268 266 275 285 286 285 286 287 293 301 300 310 303 301
141 140 134 136 136 132 136 141 144 143 150 152 154 161 169 208 266 314 268 299 319 328 326 329 344 315 328 315 310 302 303 296 286 286 291 292 293 293 298 296 302 305 307 305 304
155 146 146 145 139 138 137 143 153 150 162 166 171 177 197 256 314 296 290 309 314 322 335 6 19 345 327 325 317 312 309 298 296 302 299 302 305 307 297 307 306 307 302 302 300
167 162 159 151 154 148 150 155 153 152 165 179 198 206 230 276 312 296 306 307 307 352 10 36 2 338 333 320 335 335 335 319 325 330 315 308 312 318 308 310 304 304 301 299 298
170 172 167 166 168 163 169 169 175 178 191 197 203 228 254 267 276 278 299 306 357 33 18 7 341 337 338 358 26 8 11 350 331 327 327 315 319 309 309 303 299 300 301 297 298
166 163 171 174 177 182 185 186 200 204 213 216 219 235 279 279 265 283 286 46 21 10 359 354 337 359 13 45 342 26 359 303 312 309 319 321 304 305 302 302 305 305 302 299 294
152 167 166 171 181 189 195 197 225 230 225 230 232 233 271 276 257 229 166 340 328 336 333 10 37 34 39 310 272 307 299 312 310 300 310 319 321 320 330 332 327 321 313 306 306
157 169 177 181 185 189 187 186 152 230 223 231 241 238 265 227 213 225 296 318 319 310 40 316 17 214 273 309 298 293 303 316 289 295 314 322 326 320 296 348 345 332 327 314 310
130 146 168 179 183 197 194 191 160 250 248 274 243 255 221 216 247 249 290 300 315 355 278 304 253 283 290 298 307 319 337 315 297 307 325 338 352 13 345 8 1 349 326 312 315
119 155 169 191 195 192 191 155 157 266 304 309 265 246 245 256 267 286 283 287 290 287 257 251 254 286 286 283 326 353 281 299 303 312 334 348 239 7 339 323 344 343 334 316 314
176 187 212 208 195 197 213 249 182 343 304 285 282 265 267 271 278 275 278 282 283 255 276 255 254 284 273 267 297 325 300 309 312 332 312 344 292 274 314 325 327 336 332 323 316
225 222 225 213 206 213 240 190 207 336 279 259 300 282 275 274 278 294 293 290 272 273 271 266 276 282 268 251 282 295 312 316 336 8 332 264 277 246 297 321 341 339 337 329 324
243 237 236 229 221 228 214 203 234 293 237 282 318 309 294 276 283 284 282 284 286 280 271 266 277 272 266 258 271 308 329 317 336 59 257 211 245 263 243 290 334 343 341 336 332
248 248 245 236 233 239 221 215 267 238 276 283 329 329 307 278 294 286 290 290 268 303 267 296 286 270 252 250 260 301 354 249 267 228 240 220 291 240 259 283 300 338 340 336 330
248 249 249 246 237 239 223 225 258 274 258 293 316 321 298 283 299 293 285 282 272 252 261 260 272 267 246 233 248 275 257 326 265 304 347 286 243 280 302 292 301 321 335 332 326
256 251 247 249 246 241 233 221 266 245 274 302 324 336 326 319 271 292 298 260 250 257 219 252 253 272 255 244 241 210 216 250 263 279 288 235 269 276 287 302 308 318 329 329 326
256 259 257 251 248 247 241 233 250 252 263 287 311 294 282 307 298 296 278 281 279 252 238 252 271 268 262 250 240 236 219 214 210 262 271 285 281 267 285 295 308 319 322 325 329
254 256 255 254 253 248 244 248 256 258 260 281 281 276 291 279 275 262 260 276 281 269 246 252 250 265 272 247 243 232 226 221 218 230 225 293 264 262 283 286 306 314 322 325 326
261 256 258 254 250 250 253 252 255 264 266 268 275 285 284 268 276 272 258 261 281 294 261 254 264 254 268 269 255 250 235 236 218 226 223 247 275 276 271 308 314 315 318 325 328
260 264 258 256 254 255 266 261 258 269 270 265 270 275 285 288 270 265 269 278 280 273 262 264 251 285 264 251 251 249 249 248 238 245 242 208 264 285 293 306 311 313 316 323 329
256 260 259 257 255 256 246 258 279 275 268 266 265 274 284 280 269 263 272 279 285 282 267 261 255 247 259 271 295 274 277 270 244 243 249 256 277 292 299 305 307 306 314 317 324
256 254 255 258 263 263 258 252 258 259 272 275 269 270 282 284 278 271 278 280 279 277 270 259 263 267 270 274 280 282 279 274 262 269 242 280 274 293 299 299 291 305 314 316 320
252 255 259 262 261 264 266 266 269 268 269 276 274 279 279 279 283 272 275 278 282 280 274 266 265 275 281 286 286 280 275 271 270 272 267 273 280 312 288 294 298 313 316 324 325
247 253 256 256 260 265 266 266 269 274 274 285 276 279 276 274 273 269 268 273 274 274 275 272 270 275 278 285 283 282 285 281 279 275 273 269 300 296 292 297 307 314 319 322 324
Height
3168 3169 3170 3170 3172 3173 3175 3176 3177 3180 3182 3184 3187 3189 3189 3190 3192 3193 3194 3195 3196 3196 3195 3195 3192 3193 3192 3192 3192 3193 3195 3194 3194 3194 3193 3194 3195 3195 3195 3194 3194 3193 3191 3191 3192
3170 3170 3172 3173 3175 3176 3178 3179 3180 3182 3185 3187 3189 3191 3191 3192 3194 3194 3195 3195 3196 3196 3196 3195 3195 3194 3193 3193 3192 3192 3194 3192 3192 3192 3192 3193 3193 3193 3194 3192 3192 3191 3190 3188 3188
3171 3172 3175 3176 3177 3179 3180 3181 3184 3185 3187 3189 3190 3191 3193 3194 3195 3195 3195 3196 3197 3196 3196 3195 3194 3194 3192 3192 3192 3191 3191 3191 3191 3192 3191 3191 3191 3191 3191 3190 3189 3189 3188 3187 3186
3174 3176 3177 3178 3179 3181 3182 3184 3185 3187 3188 3190 3191 3192 3193 3195 3197 3195 3195 3196 3196 3196 3195 3194 3193 3193 3192 3191 3191 3191 3190 3190 3190 3190 3190 3190 3189 3189 3189 3187 3187 3185 3186 3184 3183
3177 3178 3178 3180 3182 3183 3184 3186 3187 3188 3190 3191 3192 3193 3194 3196 3195 3194 3194 3195 3195 3195 3194 3193 3192 3191 3191 3191 3191 3190 3190 3190 3190 3190 3189 3189 3188 3187 3187 3185 3185 3183 3183 3182 3180
3180 3179 3181 3182 3183 3184 3186 3187 3188 3189 3191 3192 3193 3193 3194 3196 3193 3193 3193 3194 3194 3194 3193 3192 3191 3191 3191 3190 3190 3189 3189 3189 3189 3189 3188 3188 3186 3186 3185 3183 3182 3181 3180 3179 3178
3181 3181 3182 3183 3185 3185 3187 3188 3189 3190 3191 3192 3193 3193 3194 3196 3193 3193 3192 3193 3193 3193 3192 3192 3191 3191 3190 3190 3189 3188 3188 3188 3188 3188 3187 3185 3185 3184 3182 3182 3180 3179 3178 3176 3175
3181 3181 3183 3184 3185 3187 3189 3189 3189 3190 3191 3192 3192 3193 3193 3193 3192 3192 3192 3192 3192 3192 3192 3192 3191 3190 3189 3188 3188 3187 3187 3186 3186 3186 3185 3184 3182 3180 3179 3178 3176 3175 3174 3173 3172
3183 3181 3183 3184 3186 3189 3190 3189 3190 3190 3192 3192 3192 3193 3193 3192 3191 3191 3191 3192 3192 3192 3192 3191 3190 3190 3188 3187 3187 3187 3188 3187 3186 3184 3183 3182 3179 3177 3176 3174 3173 3171 3170 3169 3169
3183 3184 3184 3185 3187 3189 3190 3189 3190 3191 3191 3191 3191 3194 3192 3191 3190 3191 3191 3191 3192 3191 3192 3191 3190 3189 3188 3188 3188 3187 3187 3186 3185 3183 3181 3178 3175 3173 3170 3170 3169 3167 3167 3166 3165
3185 3184 3184 3186 3187 3188 3190 3190 3192 3192 3191 3191 3191 3191 3190 3190 3190 3191 3190 3191 3191 3191 3191 3191 3190 3189 3187 3187 3186 3186 3185 3185 3182 3181 3179 3175 3171 3170 3168 3168 3167 3166 3164 3163 3162
3185 3185 3186 3187 3188 3188 3190 3190 3189 3192 3191 3190 3190 3190 3190 3189 3190 3189 3190 3190 3189 3190 3190 3191 3188 3187 3186 3185 3185 3184 3183 3183 3181 3178 3176 3173 3170 3168 3167 3167 3165 3164 3162 3160 3158
3185 3186 3187 3188 3188 3189 3190 3190 3190 3190 3190 3190 3189 3189 3189 3189 3189 3188 3188 3188 3188 3188 3188 3187 3186 3185 3184 3183 3183 3183 3182 3180 3179 3176 3173 3171 3169 3167 3166 3164 3163 3162 3160 3157 3155
3186 3186 3187 3187 3190 3189 3190 3190 3190 3191 3190 3191 3189 3188 3188 3187 3187 3186 3187 3188 3187 3187 3186 3185 3184 3183 3182 3182 3182 3180 3179 3177 3175 3174 3173 3171 3170 3165 3164 3163 3161 3159 3157 3155 3153
3187 3187 3187 3188 3188 3189 3191 3191 3191 3191 3189 3190 3187 3186 3186 3187 3186 3185 3186 3185 3185 3185 3186 3184 3182 3181 3180 3180 3180 3179 3177 3175 3173 3171 3171 3170 3169 3162 3162 3159 3158 3156 3153 3151 3149
3186 3186 3187 3187 3188 3189 3190 3190 3192 3193 3187 3187 3186 3185 3185 3184 3183 3184 3184 3184 3183 3183 3182 3180 3179 3179 3177 3177 3177 3177 3175 3173 3172 3171 3171 3166 3167 3160 3158 3157 3155 3152 3149 3146 3144
3185 3185 3185 3186 3189 3189 3190 3191 3192 3189 3188 3186 3184 3183 3183 3182 3181 3182 3181 3181 3182 3182 3179 3178 3176 3176 3176 3176 3175 3175 3174 3173 3173 3171 3166 3163 3163 3156 3154 3154 3151 3147 3145 3143 3139
3182 3183 3184 3185 3186 3188 3189 3192 3190 3187 3185 3185 3183 3182 3181 3180 3180 3179 3179 3179 3179 3180 3179 3177 3175 3173 3173 3173 3173 3173 3173 3172 3172 3168 3163 3160 3156 3151 3150 3149 3147 3145 3142 3138 3135
3181 3181 3182 3184 3185 3187 3188 3188 3187 3185 3185 3183 3182 3180 3179 3179 3180 3178 3177 3177 3176 3176 3178 3175 3173 3171 3171 3171 3173 3171 3171 3171 3169 3166 3164 3155 3151 3148 3146 3145 3143 3141 3138 3135 3130
3178 3179 3181 3181 3182 3184 3185 3184 3184 3183 3183 3182 3181 3182 3181 3180 3179 3178 3176 3174 3173 3173 3173 3172 3171 3168 3168 3168 3168 3168 3169 3168 3167 3167 3163 3151 3148 3144 3142 3141 3139 3136 3133 3129 3125
3176 3176 3178 3179 3179 3181 3180 3181 3181 3181 3181 3181 3179 3179 3179 3179 3178 3178 3175 3173 3171 3171 3170 3170 3170 3167 3165 3164 3164 3165 3164 3164 3165 3164 3161 3157 3143 3139 3139 3137 3135 3131 3126 3121 3118
3173 3173 3174 3175 3177 3175 3175 3178 3177 3176 3177 3177 3177 3176 3176 3176 3174 3174 3173 3170 3169 3169 3168 3168 3166 3163 3162 3161 3161 3161 3160 3160 3160 3159 3156 3154 3137 3135 3135 3133 3131 3127 3123 3119 3112
3169 3170 3171 3171 3172 3172 3172 3174 3173 3172 3173 3172 3173 3173 3172 3172 3172 3169 3167 3168 3167 3166 3165 3165 3163 3162 3158 3158 3156 3155 3155 3156 3156 3154 3149 3150 3133 3130 3129 3129 3125 3121 3117 3113 3108
3166 3166 3167 3167 3168 3168 3170 3170 3168 3168 3168 3168 3169 3169 3169 3167 3168 3165 3164 3164 3163 3163 3162 3161 3160 3159 3157 3155 3155 3153 3152 3152 3150 3147 3140 3132 3126 3125 3125 3123 3120 3115 3110 3106 3102
3162 3162 3162 3162 3163 3164 3165 3165 3164 3165 3164 3164 3163 3165 3165 3164 3162 3160 3160 3159 3159 3158 3158 3157 3153 3153 3151 3150 3149 3146 3145 3143 3140 3135 3134 3122 3123 3117 3119 3118 3115 3112 3108 3101 3096
3156 3158 3158 3158 3159 3159 3159 3159 3159 3160 3160 3159 3160 3161 3161 3160 3160 3158 3155 3154 3154 3154 3152 3151 3148 3146 3143 3144 3142 3138 3136 3134 3129 3125 3120 3117 3114 3115 3112 3111 3108 3105 3100 3096 3091
3150 3151 3151 3151 3153 3154 3154 3154 3154 3153 3155 3155 3155 3154 3154 3154 3153 3152 3151 3150 3148 3147 3148 3147 3145 3142 3136 3138 3134 3129 3124 3122 3118 3115 3113 3112 3109 3109 3107 3104 3102 3098 3094 3088 3083